Surface/Precipitation History
10/20/2014 13:57  to  10/21/2014 13:57
Change End Date:
Date/Time
(MDT)
Sf
Temp Chem Water Layer Surface Precipitation
Sf Sub Frz Factor Pct Depth IcePct Cond Salin Type Intens Accum Rate
10/21/2014 13:42 Dry 49.1F - - - - - - 0 mhos 5 Yes - - -
10/21/2014 13:33 Dry 50.7F - - - - - - 0 mhos 5 Yes - - -
10/21/2014 13:31 Dry 51.1F - - - - - - 0 mhos 5 Yes - - -
10/21/2014 13:22 Dry 48.4F - - - - - - 0 mhos 4 Yes - - -
10/21/2014 13:12 Dry 48.7F - - - - - - 0 mhos 6 None None - -
10/21/2014 13:11 Dry 48.7F - - - - - - 0 mhos 5 Yes - - -
10/21/2014 13:02 Dry 48.9F - - - - - - 0 mhos 7 Yes - - -
10/21/2014 13:01 Dry 48.9F - - - - - - 0 mhos 7 None None - -
10/21/2014 12:52 Dry 47.8F - - - - - - 0 mhos 4 Yes - - -
10/21/2014 12:42 Dry 47.3F - - - - - - 0 mhos 6 Yes - - -
10/21/2014 12:41 Dry 47.3F - - - - - - 0 mhos 5 Yes - - -
10/21/2014 12:32 Dry 46.0F - - - - - - 0 mhos 6 Yes - - -
10/21/2014 12:31 Dry 46.0F - - - - - - 0 mhos 6 Yes - - -
10/21/2014 12:22 Dry 43.2F - - - - - - 0 mhos 4 Yes - - -
10/21/2014 12:12 Dry 36.3F - - - - - - 0 mhos 2 Yes - - -
Date/Time
(MDT)
Sf
Temp Chem Water Layer Surface Precipitation
Sf Sub Frz Factor Pct Depth IcePct Cond Salin Type Intens Accum Rate
10/21/2014 12:11 Dry 37.6F - - - - - - 0 mhos 3 Yes - - -
10/21/2014 12:02 Dry 57.4F - - - - - - 0 mhos 0 None None - -
10/21/2014 12:01 Dry 56.5F - - - - - - 0 mhos 0 None None - -
10/21/2014 11:52 Dry 54.1F - - - - - - 0 mhos 0 None None - -
10/21/2014 11:42 Dry 54.0F - - - - - - 0 mhos 0 Yes - - -
10/21/2014 11:41 Dry 54.1F - - - - - - 0 mhos 0 Yes - - -
10/21/2014 11:32 Dry 55.4F - - - - - - 0 mhos 0 None None - -
10/21/2014 11:31 Dry 55.2F - - - - - - 0 mhos 0 None None - -
10/21/2014 11:22 Dry 54.7F - - - - - - 0 mhos 0 None None - -
10/21/2014 11:12 Dry 54.1F - - - - - - 0 mhos 0 None None - -
10/21/2014 11:11 Dry 54.1F - - - - - - 0 mhos 0 None None - -
10/21/2014 11:02 Dry 54.7F - - - - - - 0 mhos 0 None None - -
10/21/2014 11:00 Dry 54.5F - - - - - - 0 mhos 0 None None - -
10/21/2014 10:52 Dry 54.7F - - - - - - 0 mhos 0 None None - -
10/21/2014 10:42 Dry 53.4F - - - - - - 0 mhos 0 None None - -
Date/Time
(MDT)
Sf
Temp Chem Water Layer Surface Precipitation
Sf Sub Frz Factor Pct Depth IcePct Cond Salin Type Intens Accum Rate
10/21/2014 10:42 Dry 53.4F - - - - - - 0 mhos 0 None None - -
10/21/2014 10:32 Dry 52.5F - - - - - - 0 mhos 0 None None - -
10/21/2014 10:31 Dry 52.3F - - - - - - 0 mhos 0 None None - -
10/21/2014 10:22 Dry 50.5F - - - - - - 0 mhos 0 None None - -
10/21/2014 10:12 Dry 50.0F - - - - - - 0 mhos 0 None None - -
10/21/2014 10:12 Dry 50.0F - - - - - - 0 mhos 0 None None - -
10/21/2014 10:02 Dry 50.5F - - - - - - 0 mhos 0 None None - -
10/21/2014 10:00 Dry 50.9F - - - - - - 0 mhos 0 None None - -
10/21/2014 09:52 Dry 51.1F - - - - - - 0 mhos 0 None None - -
10/21/2014 09:42 Dry 50.5F - - - - - - 0 mhos 0 None None - -
10/21/2014 09:41 Dry 50.5F - - - - - - 0 mhos 0 None None - -
10/21/2014 09:32 Dry 50.0F - - - - - - 0 mhos 0 None None - -
10/21/2014 09:31 Dry 50.0F - - - - - - 0 mhos 0 None None - -
10/21/2014 09:22 Dry 49.3F - - - - - - 0 mhos 0 None None - -
10/21/2014 09:12 Dry 48.6F - - - - - - 0 mhos 0 None None - -
Date/Time
(MDT)
Sf
Temp Chem Water Layer Surface Precipitation
Sf Sub Frz Factor Pct Depth IcePct Cond Salin Type Intens Accum Rate
10/21/2014 09:12 Dry 48.6F - - - - - - 0 mhos 0 None None - -
10/21/2014 09:02 Dry 48.0F - - - - - - 0 mhos 0 None None - -
10/21/2014 09:00 Dry 47.8F - - - - - - 0 mhos 0 None None - -
10/21/2014 08:52 Dry 47.3F - - - - - - 0 mhos 0 None None - -
10/21/2014 08:42 Dry 46.6F - - - - - - 0 mhos 1 None None - -
10/21/2014 08:41 Dry 46.6F - - - - - - 0 mhos 1 None None - -
10/21/2014 08:32 Dry 46.4F - - - - - - 0 mhos 1 None None - -
10/21/2014 08:31 Dry 46.4F - - - - - - 0 mhos 1 None None - -
10/21/2014 08:22 Dry 46.2F - - - - - - 0 mhos 1 Yes - - -
10/21/2014 08:12 Dry 46.8F - - - - - - 0 mhos 1 Yes - - -
10/21/2014 08:12 Dry 46.8F - - - - - - 0 mhos 1 Yes - - -
10/21/2014 08:01 Dry 48.2F - - - - - - 0 mhos 0 None None - -
10/21/2014 08:01 Dry 48.2F - - - - - - 0 mhos 0 None None - -
10/21/2014 07:51 Dry 48.0F - - - - - - 0 mhos 0 None None - -
10/21/2014 07:41 Dry 48.0F - - - - - - 0 mhos 0 None None - -
Date/Time
(MDT)
Sf
Temp Chem Water Layer Surface Precipitation
Sf Sub Frz Factor Pct Depth IcePct Cond Salin Type Intens Accum Rate
10/21/2014 07:34 Dry 47.8F - - - - - - 0 mhos 0 None None - -
10/21/2014 07:31 Dry 47.8F - - - - - - 0 mhos 0 None None - -
10/21/2014 07:21 Dry 48.0F - - - - - - 0 mhos 0 None None - -
10/21/2014 07:11 Dry 47.7F - - - - - - 0 mhos 0 None None - -
10/21/2014 07:01 Dry 46.9F - - - - - - 0 mhos 0 None None - -
10/21/2014 07:01 Dry 46.9F - - - - - - 0 mhos 0 None None - -
10/21/2014 06:51 Dry 46.8F - - - - - - 0 mhos 0 None None - -
10/21/2014 06:41 Dry 46.9F - - - - - - 0 mhos 0 None None - -
10/21/2014 06:31 Dry 46.9F - - - - - - 0 mhos 0 None None - -
10/21/2014 06:31 Dry 46.9F - - - - - - 0 mhos 0 None None - -
10/21/2014 06:21 Dry 46.6F - - - - - - 0 mhos 0 None None - -
10/21/2014 06:11 Dry 46.6F - - - - - - 0 mhos 0 None None - -
10/21/2014 06:01 Dry 46.9F - - - - - - 0 mhos 0 None None - -
10/21/2014 06:01 Dry 46.9F - - - - - - 0 mhos 0 None None - -
10/21/2014 05:51 Dry 47.1F - - - - - - 0 mhos 0 None None - -
Date/Time
(MDT)
Sf
Temp Chem Water Layer Surface Precipitation
Sf Sub Frz Factor Pct Depth IcePct Cond Salin Type Intens Accum Rate
10/21/2014 05:42 Dry 46.9F - - - - - - 0 mhos 0 None None - -
10/21/2014 05:41 Dry 46.9F - - - - - - 0 mhos 0 None None - -
10/21/2014 05:31 Dry 46.6F - - - - - - 0 mhos 0 None None - -
10/21/2014 05:31 Dry 46.6F - - - - - - 0 mhos 0 None None - -
10/21/2014 05:21 Dry 46.0F - - - - - - 0 mhos 0 None None - -
10/21/2014 05:11 Dry 45.5F - - - - - - 0 mhos 0 None None - -
10/21/2014 05:01 Dry 45.3F - - - - - - 0 mhos 0 None None - -
10/21/2014 05:01 Dry 45.3F - - - - - - 0 mhos 0 None None - -
10/21/2014 04:51 Dry 45.3F - - - - - - 0 mhos 0 None None - -
10/21/2014 04:41 Dry 45.5F - - - - - - 0 mhos 0 None None - -
10/21/2014 04:32 Dry 45.5F - - - - - - 0 mhos 0 None None - -
10/21/2014 04:31 Dry 45.5F - - - - - - 0 mhos 0 None None - -
10/21/2014 04:21 Dry 45.3F - - - - - - 0 mhos 0 None None - -
10/21/2014 04:11 Dry 45.5F - - - - - - 0 mhos 0 None None - -
10/21/2014 04:01 Dry 45.5F - - - - - - 0 mhos 0 None None - -
Date/Time
(MDT)
Sf
Temp Chem Water Layer Surface Precipitation
Sf Sub Frz Factor Pct Depth IcePct Cond Salin Type Intens Accum Rate
10/21/2014 04:01 Dry 45.5F - - - - - - 0 mhos 0 None None - -
10/21/2014 03:51 Dry 45.3F - - - - - - 0 mhos 0 None None - -
10/21/2014 03:41 Dry 45.5F - - - - - - 0 mhos 0 None None - -
10/21/2014 03:31 Dry 45.7F - - - - - - 0 mhos 0 None None - -
10/21/2014 03:31 Dry 45.7F - - - - - - 0 mhos 0 None None - -
10/21/2014 03:21 Dry 45.9F - - - - - - 0 mhos 0 None None - -
10/21/2014 03:11 Dry 45.9F - - - - - - 0 mhos 0 None None - -
10/21/2014 03:01 Dry 45.9F - - - - - - 0 mhos 0 None None - -
10/21/2014 03:01 Dry 45.9F - - - - - - 0 mhos 0 None None - -
10/21/2014 02:51 Dry 45.5F - - - - - - 0 mhos 0 None None - -
10/21/2014 02:47 Dry 45.5F - - - - - - 0 mhos 0 None None - -
10/21/2014 02:41 Dry 45.7F - - - - - - 0 mhos 0 None None - -
10/21/2014 02:31 Dry 45.3F - - - - - - 0 mhos 0 None None - -
10/21/2014 02:30 Dry 45.3F - - - - - - 0 mhos 0 None None - -
10/21/2014 02:21 Dry 45.5F - - - - - - 0 mhos 0 None None - -
Date/Time
(MDT)
Sf
Temp Chem Water Layer Surface Precipitation
Sf Sub Frz Factor Pct Depth IcePct Cond Salin Type Intens Accum Rate
10/21/2014 02:11 Dry 45.5F - - - - - - 0 mhos 0 None None - -
10/21/2014 02:05 Dry 45.7F - - - - - - 0 mhos 0 None None - -
10/21/2014 02:00 Dry 46.0F - - - - - - 0 mhos 0 None None - -
10/21/2014 01:50 Dry 46.4F - - - - - - 0 mhos 0 None None - -
10/21/2014 01:40 Dry 46.6F - - - - - - 0 mhos 0 None None - -
10/21/2014 01:31 Dry 46.8F - - - - - - 0 mhos 0 None None - -
10/21/2014 01:30 Dry 46.8F - - - - - - 0 mhos 0 None None - -
10/21/2014 01:20 Dry 47.1F - - - - - - 0 mhos 0 None None - -
10/21/2014 01:10 Dry 47.3F - - - - - - 0 mhos 0 None None - -
10/21/2014 01:01 Dry 47.5F - - - - - - 0 mhos 0 None None - -
10/21/2014 01:00 Dry 47.5F - - - - - - 0 mhos 0 None None - -
10/21/2014 00:50 Dry 47.8F - - - - - - 0 mhos 0 None None - -
10/21/2014 00:40 Dry 47.8F - - - - - - 0 mhos 0 None None - -
10/21/2014 00:31 Dry 47.8F - - - - - - 0 mhos 0 None None - -
10/21/2014 00:30 Dry 47.8F - - - - - - 0 mhos 0 None None - -
Date/Time
(MDT)
Sf
Temp Chem Water Layer Surface Precipitation
Sf Sub Frz Factor Pct Depth IcePct Cond Salin Type Intens Accum Rate
10/21/2014 00:20 Dry 47.8F - - - - - - 0 mhos 0 None None - -
10/21/2014 00:10 Dry 48.0F - - - - - - 0 mhos 0 None None - -
10/21/2014 00:00 Dry 48.4F - - - - - - 0 mhos 0 None None - -
10/20/2014 23:59 Dry 48.4F - - - - - - 0 mhos 0 None None - -
10/20/2014 23:50 Dry 48.7F - - - - - - 0 mhos 0 None None - -
10/20/2014 23:40 Dry 48.9F - - - - - - 0 mhos 0 None None - -
10/20/2014 23:31 Dry 49.3F - - - - - - 0 mhos 0 None None - -
10/20/2014 23:30 Dry 49.5F - - - - - - 0 mhos 0 None None - -
10/20/2014 23:20 Dry 49.5F - - - - - - 0 mhos 0 None None - -
10/20/2014 23:10 Dry 50.0F - - - - - - 0 mhos 0 None None - -
10/20/2014 23:06 Dry 50.0F - - - - - - 0 mhos 0 None None - -
10/20/2014 23:00 Dry 50.4F - - - - - - 0 mhos 0 None None - -
10/20/2014 22:50 Dry 50.5F - - - - - - 0 mhos 0 None None - -
10/20/2014 22:40 Dry 50.9F - - - - - - 0 mhos 0 None None - -
10/20/2014 22:31 Dry 51.1F - - - - - - 0 mhos 0 None None - -
Date/Time
(MDT)
Sf
Temp Chem Water Layer Surface Precipitation
Sf Sub Frz Factor Pct Depth IcePct Cond Salin Type Intens Accum Rate
10/20/2014 22:30 Dry 51.3F - - - - - - 0 mhos 0 None None - -
10/20/2014 22:20 Dry 51.4F - - - - - - 0 mhos 0 None None - -
10/20/2014 22:10 Dry 51.8F - - - - - - 0 mhos 0 None None - -
10/20/2014 22:01 Dry 52.3F - - - - - - 0 mhos 0 None None - -
10/20/2014 22:00 Dry 52.3F - - - - - - 0 mhos 0 None None - -
10/20/2014 21:50 Dry 52.7F - - - - - - 0 mhos 0 None None - -
10/20/2014 21:42 Dry 52.2F - - - - - - 0 mhos 0 None None - -
10/20/2014 21:40 Dry 52.2F - - - - - - 0 mhos 0 None None - -
10/20/2014 21:31 Dry 51.6F - - - - - - 0 mhos 0 None None - -
10/20/2014 21:30 Dry 51.8F - - - - - - 0 mhos 0 None None - -
10/20/2014 21:20 Dry 51.8F - - - - - - 0 mhos 0 None None - -
10/20/2014 21:10 Dry 52.0F - - - - - - 0 mhos 0 None None - -
10/20/2014 21:01 Dry 52.2F - - - - - - 0 mhos 0 None None - -
10/20/2014 21:00 Dry 52.3F - - - - - - 0 mhos 0 None None - -
10/20/2014 20:50 Dry 52.7F - - - - - - 0 mhos 0 None None - -
Date/Time
(MDT)
Sf
Temp Chem Water Layer Surface Precipitation
Sf Sub Frz Factor Pct Depth IcePct Cond Salin Type Intens Accum Rate
10/20/2014 20:40 Dry 53.1F - - - - - - 0 mhos 0 None None - -
10/20/2014 20:31 Dry 53.4F - - - - - - 0 mhos 0 None None - -
10/20/2014 20:30 Dry 53.6F - - - - - - 0 mhos 0 None None - -
10/20/2014 20:20 Dry 54.1F - - - - - - 0 mhos 0 None None - -
10/20/2014 20:10 Dry 54.9F - - - - - - 0 mhos 0 None None - -
10/20/2014 20:01 Dry 55.0F - - - - - - 0 mhos 0 None None - -
10/20/2014 20:00 Dry 55.0F - - - - - - 0 mhos 0 None None - -
10/20/2014 19:50 Dry 55.6F - - - - - - 0 mhos 0 None None - -
10/20/2014 19:40 Dry 56.1F - - - - - - 0 mhos 0 None None - -
10/20/2014 19:31 Dry 56.7F - - - - - - 0 mhos 0 None None - -
10/20/2014 19:30 Dry 56.7F - - - - - - 0 mhos 0 None None - -
10/20/2014 19:20 Dry 57.4F - - - - - - 0 mhos 0 None None - -
10/20/2014 19:10 Dry 58.1F - - - - - - 0 mhos 0 None None - -
10/20/2014 19:02 Dry 58.6F - - - - - - 0 mhos 0 None None - -
10/20/2014 19:00 Dry 59.0F - - - - - - 0 mhos 0 None None - -
Date/Time
(MDT)
Sf
Temp Chem Water Layer Surface Precipitation
Sf Sub Frz Factor Pct Depth IcePct Cond Salin Type Intens Accum Rate
10/20/2014 18:49 Dry 60.3F - - - - - - 0 mhos 0 None None - -
10/20/2014 18:42 Dry 60.8F - - - - - - 0 mhos 0 None None - -
10/20/2014 18:39 Dry 61.3F - - - - - - 0 mhos 0 None None - -
10/20/2014 18:31 Dry 62.4F - - - - - - 0 mhos 0 None None - -
10/20/2014 18:29 Dry 62.6F - - - - - - 0 mhos 0 None None - -
10/20/2014 18:19 Dry 63.5F - - - - - - 0 mhos 0 None None - -
10/20/2014 18:11 Dry 64.0F - - - - - - 0 mhos 0 None None - -
10/20/2014 18:09 Dry 64.0F - - - - - - 0 mhos 0 None None - -
10/20/2014 18:01 Dry 65.1F - - - - - - 0 mhos 0 None None - -
10/20/2014 17:59 Dry 65.1F - - - - - - 0 mhos 0 None None - -
10/20/2014 17:49 Dry 66.0F - - - - - - 0 mhos 0 None None - -
10/20/2014 17:42 Dry 67.1F - - - - - - 0 mhos 0 None None - -
10/20/2014 17:39 Dry 67.5F - - - - - - 0 mhos 0 None None - -
10/20/2014 17:31 Dry 68.9F - - - - - - 0 mhos 0 None None - -
10/20/2014 17:29 Dry 69.1F - - - - - - 0 mhos 0 None None - -
Date/Time
(MDT)
Sf
Temp Chem Water Layer Surface Precipitation
Sf Sub Frz Factor Pct Depth IcePct Cond Salin Type Intens Accum Rate
10/20/2014 17:19 Dry 69.6F - - - - - - 0 mhos 0 None None - -
10/20/2014 17:11 Dry 70.3F - - - - - - 0 mhos 0 None None - -
10/20/2014 17:09 Dry 71.1F - - - - - - 0 mhos 0 None None - -
10/20/2014 17:01 Dry 69.4F - - - - - - 0 mhos 0 None None - -
10/20/2014 16:59 Dry 69.3F - - - - - - 0 mhos 0 None None - -
10/20/2014 16:49 Dry 72.3F - - - - - - 0 mhos 0 None None - -
10/20/2014 16:47 Dry 74.3F - - - - - - 0 mhos 0 None None - -
10/20/2014 16:39 Dry 75.9F - - - - - - 0 mhos 0 None None - -
10/20/2014 16:30 Dry 76.8F - - - - - - 0 mhos 0 None None - -
10/20/2014 16:29 Dry 76.8F - - - - - - 0 mhos 0 None None - -
10/20/2014 16:19 Dry 77.5F - - - - - - 0 mhos 0 None None - -
10/20/2014 16:14 Dry 77.9F - - - - - - 0 mhos 0 None None - -
10/20/2014 16:09 Dry 78.3F - - - - - - 0 mhos 0 None None - -
10/20/2014 16:00 Dry 78.6F - - - - - - 0 mhos 0 None None - -
10/20/2014 15:59 Dry 79.0F - - - - - - 0 mhos 0 None None - -
Date/Time
(MDT)
Sf
Temp Chem Water Layer Surface Precipitation
Sf Sub Frz Factor Pct Depth IcePct Cond Salin Type Intens Accum Rate
10/20/2014 15:49 Dry 79.3F - - - - - - 0 mhos 0 None None - -
10/20/2014 15:46 Dry 79.7F - - - - - - 0 mhos 0 None None - -
10/20/2014 15:39 Dry 80.1F - - - - - - 0 mhos 0 None None - -
10/20/2014 15:31 Dry 80.2F - - - - - - 0 mhos 0 None None - -
10/20/2014 15:29 Dry 80.4F - - - - - - 0 mhos 0 None None - -
10/20/2014 15:19 Dry 80.6F - - - - - - 0 mhos 0 None None - -
10/20/2014 15:12 Dry 80.6F - - - - - - 0 mhos 0 None None - -
10/20/2014 15:09 Dry 80.6F - - - - - - 0 mhos 0 None None - -
10/20/2014 15:01 Dry 80.8F - - - - - - 0 mhos 0 None None - -
10/20/2014 14:59 Dry 80.8F - - - - - - 0 mhos 0 None None - -
10/20/2014 14:49 Dry 80.4F - - - - - - 0 mhos 0 None None - -
10/20/2014 14:42 Dry 80.2F - - - - - - 0 mhos 0 None None - -
10/20/2014 14:39 Dry 80.1F - - - - - - 0 mhos 0 None None - -
10/20/2014 14:31 Dry 80.1F - - - - - - 0 mhos 0 None None - -
10/20/2014 14:29 Dry 80.1F - - - - - - 0 mhos 0 None None - -
Date/Time
(MDT)
Sf
Temp Chem Water Layer Surface Precipitation
Sf Sub Frz Factor Pct Depth IcePct Cond Salin Type Intens Accum Rate
10/20/2014 14:19 Dry 79.3F - - - - - - 0 mhos 0 None None - -
10/20/2014 14:12 Dry 79.0F - - - - - - 0 mhos 0 None None - -
10/20/2014 14:09 Dry 79.0F - - - - - - 0 mhos 0 None None - -
10/20/2014 14:01 Dry 78.3F - - - - - - 0 mhos 0 None None - -
10/20/2014 13:59 Dry 78.3F - - - - - - 0 mhos 0 None None - -
Change End Date:
Copyright © 1998-2005 Surface Systems, Inc.
All Rights Reserved
Send comments about the data to:
SCAN Web ® is a registered trademark of Surface Systems, Inc.
SCAN Web Version 5.6